Theta_e
342 339 339 340 336 335 333 332 331 330 329 327 326 328 328 326 325 329 326 330 327 327
339 335 333 333 333 332 332 330 327 324 323 322 322 323 323 323 323 324 325 323 325 325
336 336 336 334 331 329 327 326 322 321 320 323 325 324 324 322 327 324 328 325 327 326
335 334 332 330 330 328 326 326 323 322 321 325 326 325 324 326 326 329 329 328 329 330
333 333 331 329 329 329 327 326 325 325 325 325 323 325 326 326 326 325 324 328 328 328
332 329 329 328 328 327 326 326 325 325 324 324 325 325 326 324 327 327 326 327 329 329
330 329 329 328 328 328 328 326 328 327 328 327 327 327 326 327 328 328 329 330 332 331
332 332 332 330 329 327 327 326 328 326 328 327 327 323 326 327 328 329 331 330 332 331
335 335 334 332 330 330 330 331 332 331 330 329 326 326 326 328 326 327 327 326 328 332
335 333 333 333 332 331 332 333 332 332 332 331 332 327 325 327 327 326 326 327 328 329
334 333 334 332 330 333 332 332 332 331 334 334 332 326 324 327 329 330 330 330 330 329
334 334 333 331 329 328 328 333 333 332 329 330 332 326 323 325 330 329 329 329 331 330
338 337 335 337 338 335 335 331 329 330 334 331 333 326 321 322 329 327 326 328 328 327
337 337 337 338 340 339 333 335 334 334 333 333 332 331 321 318 327 327 326 324 323 326
Wind_Speed
8 5 5 6 5 5 6 6 6 9 9 7 6 5 5 6 6 7 6 6 7 6
7 10 7 6 7 6 6 6 8 8 9 7 5 5 5 4 5 5 7 7 8 7
1 8 8 8 9 8 7 7 7 7 5 5 4 2 2 2 2 3 1 1 3 4
6 8 8 9 7 7 7 7 7 5 7 4 2 2 4 4 5 3 0 3 3 3
7 8 8 8 6 6 5 5 7 5 3 2 2 3 4 3 2 3 2 2 4 4
8 6 7 7 7 6 5 4 3 3 3 2 4 3 4 3 3 4 5 4 4 6
7 6 6 7 7 5 4 4 4 3 2 2 4 4 5 5 4 5 6 6 5 5
7 7 7 6 5 5 5 4 2 3 4 5 5 6 7 5 6 7 7 5 6 6
7 6 6 6 5 4 4 4 4 5 5 6 6 9 7 6 5 6 6 7 6 6
7 6 5 5 6 5 5 5 6 7 7 7 8 12 11 11 6 7 8 8 8 8
6 7 6 5 6 5 5 7 7 5 5 5 5 9 12 13 8 7 9 10 11 10
7 7 9 8 6 5 3 2 3 4 6 7 8 11 10 8 7 8 10 11 12 13
2 2 3 2 3 0 2 5 6 6 5 6 6 9 11 11 7 9 9 11 13 17
3 3 4 4 3 3 5 5 6 5 7 9 9 11 13 12 8 9 8 9 9 6
Wind_Direction
77 51 81 98 96 85 110 121 104 68 73 76 50 7 28 41 23 16 36 42 37 9
133 133 124 99 53 84 96 89 62 59 87 78 76 14 6 50 31 25 21 22 29 12
154 101 104 94 89 75 73 90 99 119 105 124 125 162 136 33 230 122 129 59 11 21
142 119 112 102 110 122 148 151 147 146 143 168 159 217 239 210 240 236 260 263 224 225
137 128 112 118 135 153 139 132 138 154 185 204 263 264 256 255 301 240 266 291 321 301
138 141 142 151 136 138 153 141 152 165 185 165 228 224 283 300 319 328 296 275 278 269
139 140 148 144 141 155 168 173 172 156 130 181 218 223 231 252 255 259 262 266 257 292
146 153 141 146 150 158 175 151 133 134 200 218 242 239 213 243 255 260 262 277 259 261
143 151 144 136 150 156 183 183 193 217 217 226 244 263 226 228 260 276 274 274 272 267
136 141 154 159 166 179 201 218 223 226 227 228 230 230 220 222 232 253 261 266 271 273
166 176 172 176 196 204 218 215 223 241 239 252 252 251 214 224 231 249 259 264 265 258
200 201 188 200 192 214 226 275 248 243 259 252 252 262 223 213 232 253 261 262 256 256
185 237 261 290 268 28 242 252 247 263 261 283 270 255 222 202 231 249 252 256 255 245
190 216 253 249 261 262 268 277 289 278 269 270 260 255 243 223 233 244 255 266 273 285